MDT,Max TemperatureF,Mean TemperatureF,Min TemperatureF,Max Dew PointF,MeanDew PointF,Min DewpointF,Max Humidity, Mean Humidity, Min Humidity, Max Sea Level PressureIn, Mean Sea Level PressureIn, Min Sea Level PressureIn, Max VisibilityMiles, Mean VisibilityMiles, Min VisibilityMiles, Max Wind SpeedMPH, Mean Wind SpeedMPH, Max Gust SpeedMPH,PrecipitationIn, CloudCover, Events, WindDirDegrees
2013-8-1,81,65,48,53,48,44,86,59,32,30.11,30.03,29.96,10,10,10,12,5,17,T,1,,101
2013-8-2,75,66,56,54,52,50,86,68,49,30.12,30.02,29.94,10,10,10,14,7,20,0.00,6,,99
2013-8-3,80,65,50,59,54,48,89,66,42,30.23,30.13,30.05,10,9,3,36,11,45,0.38,4,Rain-Thunderstorm,116
2013-8-4,78,66,54,65,60,55,100,80,60,30.06,30.00,29.93,10,10,5,16,8,18,0.12,5,Rain-Thunderstorm,210
2013-8-5,83,67,51,63,54,48,100,67,34,30.00,29.94,29.78,10,6,0,24,5,36,T,1,Fog,271
2013-8-6,76,65,54,57,55,52,93,70,46,29.98,29.86,29.72,10,9,0,53,13,87,0.64,3,Fog-Rain-Thunderstorm,298
2013-8-7,75,63,51,56,54,49,100,73,46,30.06,30.01,29.95,10,9,6,10,8,,0.00,6,,12
2013-8-8,75,62,49,52,48,45,96,66,35,30.12,30.08,30.04,10,10,10,9,4,14,0.00,2,,45
2013-8-9,75,63,50,51,48,46,89,64,38,30.20,30.16,30.13,10,10,10,12,6,15,0.00,2,,52
2013-8-10,78,64,49,59,54,47,93,74,54,30.18,30.11,30.01,10,9,1,29,10,38,0.53,3,Rain-Thunderstorm,117
2013-8-11,77,67,56,59,56,53,93,74,54,30.15,30.10,30.05,10,9,4,13,6,15,0.00,4,,72
2013-8-12,79,67,54,60,55,50,89,71,52,30.14,30.10,30.08,10,10,10,15,8,20,0.00,4,,92
2013-8-13,77,66,55,58,54,50,86,70,53,30.19,30.14,30.09,10,10,10,20,9,23,0.00,3,,128
2013-8-14,78,68,57,61,58,52,93,72,50,30.11,30.06,29.99,10,10,7,18,8,22,T,4,,150
2013-8-15,81,69,57,60,56,54,93,68,42,30.03,30.00,29.98,10,10,8,14,8,18,0.00,1,,178
2013-8-16,86,72,57,58,55,52,93,62,30,30.02,29.99,29.94,10,10,8,17,12,22,0.00,0,,177
2013-8-17,92,75,57,64,58,54,93,61,28,29.93,29.86,29.80,10,10,9,22,10,26,0.00,0,,187
2013-8-18,86,72,57,66,58,52,97,66,34,29.99,29.89,29.84,10,10,9,21,8,28,T,0,Rain,346
2013-8-19,97,76,55,65,54,50,93,58,22,29.92,29.83,29.76,10,10,10,21,7,26,0.00,0,,214
2013-8-20,93,75,56,59,52,48,84,55,25,29.85,29.79,29.74,10,10,10,16,8,21,0.00,0,,310
2013-8-21,82,68,53,59,53,48,93,64,34,30.12,30.00,29.87,10,10,9,21,11,24,0.00,1,,70
2013-8-22,83,69,54,54,49,45,72,53,33,30.19,30.10,29.99,10,10,10,21,12,26,0.00,2,,120
2013-8-23,92,78,63,66,61,53,87,63,38,29.96,29.81,29.70,10,10,10,23,13,29,T,1,Thunderstorm,150
2013-8-24,93,78,63,67,59,55,84,57,30,29.84,29.74,29.66,10,10,10,20,6,24,T,1,Thunderstorm,287
2013-8-25,94,76,57,60,56,52,80,53,26,29.93,29.91,29.85,10,10,10,16,5,18,0.00,0,,116
2013-8-26,94,80,65,67,62,57,81,57,32,29.88,29.85,29.81,10,10,10,20,9,24,0.00,1,,145
2013-8-27,90,77,64,69,64,58,93,65,36,29.94,29.90,29.84,10,9,5,17,7,23,0.00,1,,95
2013-8-28,89,76,62,67,64,62,100,73,45,29.98,29.92,29.83,10,9,4,16,7,23,0.00,1,,114
2013-8-29,89,75,61,64,62,59,93,65,37,29.99,29.92,29.82,10,10,9,18,8,30,T,1,Thunderstorm,355
2013-8-30,98,80,61,65,60,54,97,61,24,29.99,29.89,29.76,10,10,10,20,10,25,0.00,0,,196
2013-8-31,80,66,51,60,50,43,84,56,28,30.01,29.89,29.78,10,10,10,29,13,37,T,0,,303